Weather in Krasnyj Yar

Russia / Tyumen Oblast     57°28′00″N   65°58′03″E
temp.,
°C
wind,
m/s
gust,
m/s
humid.,
%
clouds,
%
prec.,
mm/h
press.,
hPa
HPBL,
m
29 may, sun
sun2923:00+11s38955 0.9 1010189
02:00+10ssw26972 0.0 1010128
05:00+9s369777 0.0 1009164
08:00+13ssw41178100 0.0 1008730
11:00+13ssw51291100 0.3 10071059
14:00+18wsw713560 0.7 10071880
17:00+18w615530 0.8 10082160
20:00+15w512635 0.0 10101349
30 may, mon
mon3023:00+12w513755 0.0 1011898
02:00+12w6147899 0.0 1012815
05:00+11w5138259 0.0 1013669
08:00+14w5967100 0.0 1014821
11:00+18w5750100 0.0 10131470
14:00+18w4649100 0.0 10131890
17:00+14sw4876100 0.3 1012410
20:00+12wsw4988100 0.1 1011385
31 may, tue
tue3123:00+11wnw3796100 2.2 1011274
02:00+10w3798100 7.9 1010469
05:00+10w3897100 9.9 1010419
08:00+11nw3793100 0.6 1010487
11:00+14n697650 1.1 10101233
14:00+12nnw3883100 0.7 1012485
17:00+15nw4972100 1.1 10121021
20:00+13nnw41064100 0.1 1013403
1 june, wed
wed123:00+9nw39825 0.1 1015180
02:00+7nw3108127 0.0 1015219
05:00+7nw3107656 0.0 1016241
08:00+12nw495558 0.0 1016535
11:00+17nw59397 0.0 10141694
14:00+19nw6113693 0.0 10132908
17:00+20nnw5124481 0.0 10123099
20:00+15nw410554 0.0 1014367
2 june, thu
thu223:00+10nnw312751 0.0 1016330
02:00+6n311735 0.0 1018254
05:00+5n39720 0.0 1020241
08:00+9n510502 0.0 10211151
11:00+13n58415 0.0 10211605
14:00+15n57375 0.0 10212002
17:00+16n46365 0.0 10212050
20:00+13nnw11615 0.0 102211